Theta_e
324 324 325 325 326 326 327 327 327 327 327 327 326 326 325 325 324 324 325 325 325 326 326 325 324 323 325 325 321 321 309 293 294 294 295 295 309 320 322 323 323 323 318 303 296 298 295 293 296 294 291 292 292 291 293 291 289 287 279 277 278 277 277 279 280 278 280 280 280 283 282 281 279 281 283 283 281 279 279 278 278 279 278 278 279 280 282 282
324 324 324 324 325 326 327 327 327 327 327 327 326 326 325 325 325 324 323 324 326 327 325 323 321 322 322 324 322 321 298 292 292 294 293 305 321 322 322 322 322 322 312 298 296 296 295 294 294 291 288 290 290 291 291 290 289 282 278 278 277 276 282 280 280 280 280 281 280 282 281 281 281 281 281 278 278 279 278 277 277 276 277 278 279 279 280 279
323 323 323 324 325 325 326 327 327 327 327 327 326 326 325 324 324 324 323 323 324 326 324 323 322 322 322 323 322 315 301 289 292 291 295 315 320 321 322 321 321 318 301 299 297 296 298 296 295 292 289 287 291 289 289 289 286 282 280 277 277 280 282 279 281 282 281 283 282 281 282 282 282 282 283 279 277 278 277 276 276 276 276 276 277 278 278 278
322 322 323 323 323 324 325 327 327 327 327 327 326 326 325 324 324 323 322 322 325 325 322 323 324 322 321 322 321 299 293 289 286 290 295 316 319 321 321 320 319 308 301 299 297 297 294 293 292 291 289 289 287 287 288 287 285 284 280 274 282 281 281 283 281 282 281 284 282 281 281 281 282 283 282 279 278 277 277 278 278 277 277 276 277 277 278 278
322 322 322 322 323 324 325 325 326 326 327 327 325 324 323 324 323 321 321 322 323 324 323 323 324 323 322 320 312 295 291 284 287 292 298 316 318 323 321 321 318 299 301 299 296 297 298 294 290 290 289 287 285 283 285 285 285 281 281 280 282 280 281 282 281 280 279 280 282 280 281 281 282 281 279 280 277 276 279 281 280 280 279 277 277 277 277 277
321 321 321 321 322 323 324 325 326 326 326 326 326 323 322 322 321 322 323 322 323 324 324 323 322 320 322 316 295 295 292 278 291 293 312 315 316 317 317 321 314 301 295 294 292 292 296 293 290 288 285 283 284 284 285 285 286 281 282 281 281 279 282 282 281 281 281 280 280 279 282 282 280 279 279 279 278 278 280 280 281 279 279 278 278 277 277 277
321 321 320 321 322 323 324 324 325 326 326 326 323 322 322 322 322 322 323 322 324 324 322 322 321 322 320 313 296 294 290 289 291 296 311 314 315 314 315 309 304 297 297 294 293 292 290 291 291 287 284 284 284 284 285 285 285 283 280 281 284 282 283 281 281 279 279 281 280 281 281 280 278 279 279 278 278 278 279 279 279 279 279 278 277 277 277 277
321 321 321 320 320 322 322 323 324 326 326 325 324 323 322 322 322 323 323 324 324 323 322 322 321 320 317 296 293 288 285 288 294 295 307 312 300 298 302 297 294 295 295 292 293 291 288 290 291 287 284 284 286 284 287 286 283 283 282 281 282 281 281 280 280 280 280 280 280 280 281 278 279 278 277 277 277 278 278 279 279 278 277 276 277 277 277 277
321 321 320 319 320 321 321 322 323 324 325 326 326 326 324 322 322 322 323 323 322 323 322 323 321 319 311 292 287 286 286 290 295 295 295 294 294 293 295 296 293 294 291 290 291 291 292 290 287 287 286 286 288 287 285 283 282 283 283 282 282 281 281 280 281 279 280 281 281 280 277 278 279 279 277 276 278 278 278 277 277 277 276 276 276 277 277 277
321 321 320 319 320 321 321 322 322 324 324 325 326 325 325 323 321 321 323 322 323 323 321 322 322 315 295 291 288 286 290 294 294 295 293 292 292 294 295 293 292 292 291 290 292 291 291 288 291 289 290 286 285 285 285 284 284 284 281 281 281 281 281 282 280 280 280 281 279 278 277 277 278 279 277 277 277 278 277 276 276 276 276 276 277 277 276 277
321 321 320 319 320 321 322 322 322 323 323 324 325 325 324 323 321 322 322 322 322 322 321 316 318 306 294 289 286 285 295 297 295 293 293 293 293 294 292 292 293 291 290 290 290 289 291 289 291 291 289 288 287 285 285 286 285 282 282 282 282 280 281 281 279 279 279 281 278 277 277 277 277 278 277 277 278 278 276 275 275 275 276 276 276 276 277 277
321 320 319 320 320 321 321 321 321 322 322 324 324 323 323 321 320 321 321 322 322 321 320 321 312 296 292 294 289 289 296 297 294 291 294 295 294 293 293 291 292 292 292 290 289 289 290 291 291 291 287 290 284 285 286 286 285 283 284 280 280 279 283 282 280 280 280 280 278 278 277 276 277 277 277 277 278 277 276 275 275 275 275 275 276 276 276 277
320 319 319 320 320 321 321 321 321 322 323 323 323 321 320 319 319 319 321 318 320 321 320 319 306 297 292 289 290 295 292 291 293 294 297 295 292 291 292 290 290 292 293 292 289 290 292 292 294 292 289 285 285 284 286 286 284 285 282 279 281 276 276 282 281 281 280 281 279 280 275 274 276 279 277 277 277 276 275 275 275 275 275 275 275 276 276 276
320 319 319 320 320 320 321 321 321 321 320 320 319 319 318 319 319 319 321 320 320 320 318 314 296 293 289 285 293 296 294 292 293 297 293 295 296 294 293 294 291 290 291 291 291 291 293 294 294 290 289 286 287 289 284 282 282 281 280 278 274 273 275 280 280 279 281 280 279 282 275 276 276 276 276 277 277 276 275 275 275 275 275 275 275 275 276 276
319 319 320 321 320 321 321 320 320 320 319 319 317 317 319 318 319 320 321 315 318 320 318 311 298 294 287 291 293 295 310 293 294 291 291 294 292 294 293 293 292 291 291 292 292 293 292 293 291 286 285 286 286 284 278 277 277 276 279 272 273 274 274 278 282 280 280 280 279 281 273 276 275 276 276 277 276 276 276 275 275 275 275 275 275 275 275 276
319 319 321 321 320 320 319 318 318 319 320 321 320 319 318 319 318 319 320 317 316 318 305 299 295 292 287 287 293 303 291 291 293 293 291 293 293 293 293 291 290 290 292 292 292 293 291 293 288 285 284 284 281 276 278 279 277 276 276 269 271 272 274 278 280 279 281 280 280 279 277 277 278 276 276 276 276 275 275 275 275 275 275 275 275 275 275 276
318 319 320 319 319 318 318 318 317 319 320 319 318 318 319 318 316 318 316 313 305 304 298 296 293 294 288 290 295 290 288 290 292 293 291 292 292 292 291 290 289 289 289 289 293 291 289 287 285 284 282 280 278 279 280 271 271 271 274 275 274 274 275 275 278 280 278 280 278 277 277 277 278 276 276 276 276 275 275 275 275 275 275 275 275 275 275 275
318 319 320 318 317 317 319 318 318 318 318 318 317 317 311 315 316 312 305 303 302 299 298 297 294 293 288 291 288 290 291 289 292 292 291 293 292 291 291 292 290 290 288 288 289 288 286 283 283 280 279 280 278 276 273 273 274 273 273 272 273 273 273 276 275 278 279 279 277 275 276 277 278 277 276 276 276 275 275 276 275 275 275 275 275 275 275 275
319 319 320 318 317 317 319 318 318 318 317 317 319 321 316 312 300 297 295 296 296 291 289 290 290 287 283 288 289 289 292 293 292 293 294 293 292 291 292 290 289 290 287 283 286 284 283 282 281 278 278 278 278 277 275 277 276 276 275 273 273 272 275 274 277 277 279 277 277 276 276 277 278 276 276 276 275 275 275 275 275 275 274 275 275 275 275 275
319 319 319 318 319 318 317 319 318 317 318 308 304 306 299 292 289 287 292 295 288 289 289 289 289 289 288 288 290 293 293 291 292 292 292 292 293 292 289 289 288 288 282 282 282 282 281 278 275 274 276 278 278 276 278 278 277 277 276 274 274 274 276 276 277 278 278 277 275 276 275 276 278 279 279 277 275 274 274 274 275 275 275 274 275 275 275 275
318 320 318 318 318 318 318 318 318 317 316 302 301 299 296 287 286 285 287 291 290 288 289 289 289 289 289 290 289 290 289 290 291 291 293 295 292 290 288 286 284 284 280 280 282 284 282 278 277 278 279 279 279 277 277 277 277 277 275 274 274 274 274 278 277 278 278 278 275 275 276 277 278 279 279 276 275 274 274 274 275 275 275 275 275 275 275 276
319 318 318 317 317 318 319 318 318 317 314 303 301 298 297 292 295 292 288 286 291 291 289 289 287 289 290 289 290 288 286 286 289 292 293 295 290 288 286 283 280 280 279 280 280 278 278 276 279 279 278 278 276 277 277 278 276 275 276 273 271 274 275 277 277 278 279 278 277 276 276 277 278 279 278 275 276 276 276 276 276 276 275 275 275 275 276 275
318 318 318 317 316 318 318 318 317 317 302 300 298 296 299 302 301 297 291 287 288 291 290 288 289 286 289 290 291 290 286 285 285 288 292 293 287 288 283 281 280 279 280 280 282 276 278 277 279 279 279 279 278 276 276 276 276 275 274 274 273 275 273 272 277 276 278 277 275 277 275 277 277 274 274 275 276 276 275 276 276 276 275 276 276 276 276 276
317 317 318 317 316 317 318 315 314 305 300 299 297 297 299 299 299 297 292 286 287 291 291 290 289 287 289 290 293 289 286 287 286 288 293 289 287 286 285 280 279 278 279 278 279 278 278 280 278 277 278 280 279 276 276 275 275 274 275 273 271 273 274 274 276 276 277 276 277 275 275 276 272 273 274 274 275 276 276 275 275 275 276 276 276 276 276 276
316 316 317 316 315 316 315 314 305 302 299 297 297 301 298 299 296 294 294 287 282 288 293 293 288 288 291 294 292 292 286 287 288 289 289 290 288 286 284 284 280 280 279 280 279 279 279 281 280 278 277 276 278 277 276 276 273 272 274 277 277 275 275 274 275 275 273 272 277 276 271 269 273 273 273 274 274 275 276 275 277 276 275 275 275 276 276 277
315 316 317 316 316 315 316 302 299 301 299 297 299 299 297 297 298 293 285 279 279 282 288 287 294 289 294 291 289 285 290 286 290 289 294 290 293 289 285 283 282 281 279 279 279 279 279 279 279 279 276 276 276 276 276 276 274 272 276 276 275 276 275 274 273 273 266 268 273 276 269 269 272 274 274 272 273 274 274 274 276 276 276 276 276 277 277 276
315 315 316 316 315 315 302 298 298 299 296 296 301 298 298 298 299 297 292 275 277 284 285 290 291 289 294 290 288 290 284 284 290 290 289 291 290 291 286 281 283 283 280 280 278 279 281 279 278 276 276 276 275 274 276 274 272 274 276 275 276 275 274 274 274 273 271 274 276 274 272 266 270 275 272 271 271 273 274 275 275 276 276 276 276 277 277 277
316 316 315 316 316 310 300 302 300 300 296 300 296 295 297 297 297 295 281 270 271 287 285 287 290 294 294 291 289 287 287 286 284 287 290 290 291 288 285 281 281 281 282 280 276 280 280 279 278 278 275 275 277 277 277 276 276 276 277 277 277 276 275 275 273 271 272 271 270 271 273 269 265 272 271 271 274 274 275 276 277 277 277 277 277 277 277 277
315 316 315 316 314 311 302 299 297 296 300 298 295 296 299 294 295 288 276 273 282 283 296 288 298 291 286 290 285 283 285 286 284 288 287 288 289 287 282 283 280 279 279 281 277 277 280 280 280 278 278 277 278 277 275 277 276 277 277 278 275 276 276 274 271 272 267 268 265 269 272 266 269 273 272 271 271 272 274 276 277 277 277 277 277 277 277 277
314 315 316 316 309 307 302 299 300 301 297 294 295 296 294 293 288 280 275 270 287 279 289 289 289 285 284 283 282 283 285 283 284 285 285 283 286 287 285 283 280 279 281 278 278 278 279 283 282 280 277 278 278 277 276 277 279 278 278 276 275 273 273 272 270 265 263 261 267 270 271 270 266 272 274 273 275 275 276 275 275 276 276 276 277 277 278 277
312 313 316 313 302 300 299 294 298 296 297 295 296 293 293 286 276 269 269 276 285 285 288 284 284 282 281 283 283 281 283 281 283 282 284 282 282 281 282 284 282 279 272 275 277 277 279 280 282 281 282 280 278 278 278 277 277 277 275 274 273 273 272 270 266 264 263 263 266 269 271 269 264 270 273 275 274 272 276 277 279 278 277 277 277 277 277 277
312 310 313 306 302 299 298 296 301 298 296 296 294 290 287 283 278 276 273 286 281 281 281 280 281 280 280 281 280 279 280 281 281 279 278 277 276 277 277 277 271 272 271 273 276 277 277 277 279 278 283 281 277 277 276 278 276 276 273 275 272 265 264 264 261 266 263 263 270 269 272 268 269 275 278 277 277 278 275 277 279 279 279 277 276 277 277 277
311 311 309 303 299 294 296 298 297 296 295 294 291 286 281 273 273 268 275 277 281 283 283 282 281 281 280 280 280 279 281 281 281 280 279 278 277 278 278 279 277 279 276 274 275 273 274 276 277 279 280 281 278 276 274 274 274 275 272 265 262 263 257 260 260 261 261 269 270 269 270 270 273 276 278 278 280 280 279 278 277 278 278 278 277 277 277 277
309 306 299 300 298 296 297 296 293 298 296 294 288 286 280 274 274 282 276 276 281 281 281 280 281 281 279 282 280 281 281 281 281 281 279 278 275 276 277 277 278 279 273 275 276 272 270 271 277 278 278 279 277 276 276 276 275 274 273 274 267 264 264 262 260 263 265 268 269 269 266 266 268 277 276 277 279 277 275 274 275 276 276 276 275 275 275 275
310 303 298 296 295 297 297 294 296 297 292 290 285 278 276 272 268 273 274 276 278 280 281 281 280 280 280 279 278 279 280 278 280 279 277 279 278 273 276 277 278 276 275 275 270 269 277 275 278 279 278 278 277 278 276 274 274 275 273 273 271 266 266 266 257 260 259 261 265 262 267 267 275 279 280 278 277 276 276 276 275 276 276 275 275 276 276 276
305 299 296 293 294 295 296 296 294 296 291 287 283 279 276 273 281 277 279 281 281 281 281 279 278 280 276 275 276 277 283 278 279 279 277 277 276 277 278 275 277 277 275 275 269 272 273 274 276 277 277 277 277 277 278 277 269 274 274 267 270 273 270 262 265 267 265 258 264 260 269 273 275 278 276 272 273 277 274 275 274 275 276 275 275 276 277 277
296 296 295 293 293 295 295 295 296 293 293 284 281 276 272 276 280 277 285 282 282 280 279 277 275 279 274 274 275 275 277 281 277 277 277 277 278 276 277 277 277 277 276 274 270 272 272 275 276 275 277 278 276 277 277 275 276 272 267 270 274 273 271 267 264 257 254 258 265 264 266 272 270 273 275 277 276 278 277 276 276 275 275 275 276 277 277 277
296 295 293 293 295 295 295 294 294 290 286 286 278 288 279 281 281 283 281 281 282 279 277 278 275 282 273 274 278 274 277 278 278 279 275 278 279 278 277 278 279 278 277 277 276 274 274 272 275 276 276 278 277 278 277 277 278 276 274 275 273 264 268 264 261 263 261 261 262 264 261 266 268 273 273 276 275 278 278 277 274 275 275 275 276 277 277 277
291 291 290 293 296 297 294 293 293 288 283 282 272 283 282 280 281 281 281 283 282 281 280 277 277 278 276 273 275 274 274 275 274 276 276 277 276 279 279 277 279 277 277 277 275 275 276 270 274 276 276 277 276 276 269 272 277 276 277 275 274 271 263 262 266 261 262 262 261 265 262 272 271 270 272 278 280 279 278 277 277 277 277 277 277 277 277 277
295 291 286 295 295 294 294 296 290 284 283 279 273 277 280 281 283 281 280 283 283 281 278 278 279 276 278 275 275 277 277 276 276 276 277 276 279 281 279 280 277 277 276 277 276 277 274 274 267 274 275 276 274 275 274 273 268 271 271 266 271 264 269 267 263 264 267 257 256 257 261 268 278 276 277 279 281 281 279 279 279 279 279 278 278 278 277 277
286 288 287 294 295 296 294 291 283 279 280 279 279 279 282 283 282 282 282 281 284 283 280 279 277 279 276 277 274 277 277 275 275 274 276 277 279 275 278 278 277 276 277 277 277 274 270 275 269 271 273 274 276 276 276 274 275 274 273 268 272 264 267 265 268 261 258 263 261 256 266 270 280 279 280 280 281 280 278 278 278 279 279 279 279 278 277 276
292 285 287 294 294 296 291 283 277 278 275 278 281 282 284 288 281 281 280 281 281 280 280 279 279 278 276 278 277 277 276 274 275 275 276 275 279 278 278 276 277 277 276 272 272 275 275 270 272 270 274 277 276 275 274 275 274 273 276 270 270 265 265 262 262 263 261 262 258 258 258 267 281 277 278 278 278 278 278 276 277 279 279 279 279 278 277 276
284 284 292 294 295 293 285 276 281 278 276 281 282 282 281 282 279 280 281 281 282 281 281 282 281 281 279 281 279 277 277 275 276 275 274 277 276 277 277 275 275 277 274 272 275 275 282 268 266 272 275 273 275 273 274 272 275 275 273 270 269 268 270 272 267 260 261 258 262 258 259 269 280 277 277 276 275 275 275 275 276 278 279 279 278 278 277 276
284 286 295 295 294 293 288 282 281 276 275 279 282 282 281 282 281 282 282 280 280 281 282 280 281 281 281 279 278 280 279 275 278 278 278 276 277 276 274 275 277 277 277 274 273 277 272 272 272 266 267 270 270 273 272 275 274 271 267 269 268 265 263 260 260 258 266 264 268 263 264 270 279 276 277 275 274 276 278 279 277 276 278 278 279 279 278 277
286 286 286 288 292 291 288 280 278 272 278 278 279 282 282 282 281 282 281 282 281 278 279 280 281 280 280 279 278 278 279 278 276 277 275 274 274 278 274 272 272 278 278 279 283 278 273 270 269 268 267 270 271 272 269 266 268 272 271 269 268 269 265 267 266 262 263 264 268 261 265 275 280 282 283 283 282 282 283 283 282 278 278 279 280 280 279 277
290 285 282 283 286 284 282 280 279 277 273 275 278 279 280 280 283 280 281 282 280 280 280 281 279 280 279 279 280 279 279 279 278 273 273 273 274 276 277 274 276 278 280 283 278 275 267 268 272 272 271 273 276 276 276 276 273 269 268 268 268 266 268 266 264 261 267 263 266 270 272 276 277 279 280 281 281 281 282 283 283 284 282 281 280 279 279 278
284 280 281 284 283 283 280 279 280 280 279 279 279 278 276 278 279 280 281 282 281 281 280 281 281 280 279 280 276 277 277 278 278 274 271 270 270 275 276 276 277 277 284 281 277 266 265 267 271 272 273 276 279 278 276 275 273 275 273 271 268 268 268 269 269 270 268 264 267 273 274 272 274 278 279 280 282 282 283 283 283 283 283 282 282 282 282 280
285 281 283 287 284 283 281 281 279 279 280 281 279 281 277 278 279 276 281 282 281 280 280 280 280 280 277 279 277 274 276 277 275 271 272 270 273 274 275 278 277 278 280 276 271 270 266 267 265 268 268 272 275 275 275 274 275 276 275 273 270 269 267 268 270 274 270 270 271 277 273 270 276 279 281 281 282 282 282 282 283 282 282 282 281 281 281 280
285 282 284 284 285 282 282 282 279 280 280 278 280 281 277 277 276 277 279 281 280 279 281 275 277 279 278 278 279 275 276 274 273 271 269 271 270 271 270 273 278 278 276 273 275 262 269 267 264 265 269 273 275 276 276 274 274 272 272 273 274 270 269 271 273 273 272 273 275 276 276 275 278 279 280 281 282 282 282 282 282 282 282 282 281 281 281 280
283 285 283 280 281 279 278 279 281 281 282 283 279 279 279 277 278 280 279 280 277 279 280 280 279 277 278 278 278 274 277 279 279 276 272 270 270 270 267 272 273 277 276 272 270 271 272 267 272 266 266 270 275 272 270 272 270 271 275 275 274 273 272 272 272 272 271 272 274 274 273 273 278 280 280 281 281 281 280 281 282 283 283 282 281 281 281 281
287 283 285 286 281 280 279 278 282 280 280 280 279 280 281 278 278 279 282 281 281 278 280 280 280 278 278 278 278 279 278 279 280 280 277 275 275 276 275 274 277 271 272 270 269 269 270 266 261 261 266 269 270 269 272 273 272 271 274 275 274 271 268 271 270 271 270 271 272 269 269 272 279 281 280 280 279 279 280 282 283 285 285 283 282 282 282 283
283 284 281 280 278 281 284 276 279 281 279 276 281 281 283 282 279 280 282 279 278 281 280 280 278 280 279 279 278 279 280 278 280 279 279 277 278 277 277 277 277 274 272 270 265 267 267 263 266 262 267 269 271 270 272 272 272 271 270 274 274 271 272 271 272 272 274 275 270 271 274 280 282 283 281 282 282 282 282 283 283 284 284 283 282 282 283 283
Wind_Speed
8 7 6 6 6 6 6 6 5 5 6 7 8 6 6 5 5 5 5 6 6 7 5 5 5 5 6 6 6 6 5 7 8 11 16 1 4 11 13 12 12 12 6 1 4 7 3 6 8 10 4 5 4 2 2 4 2 5 4 6 4 2 3 4 5 7 2 4 4 7 3 8 2 1 2 2 8 4 3 4 2 3 4 2 1 4 9 7
7 7 6 7 7 7 7 6 5 4 5 7 7 6 4 4 4 4 5 6 7 4 4 6 5 6 5 5 5 5 6 5 7 13 8 7 13 16 17 16 15 12 1 3 4 1 3 5 5 8 5 3 3 2 1 2 5 7 3 4 7 4 1 5 3 5 4 3 5 3 5 3 5 8 2 4 0 1 3 2 3 3 3 5 5 5 8 6
7 6 6 6 5 5 5 4 4 4 8 8 4 4 3 4 2 3 4 5 6 5 5 6 6 6 5 5 4 4 2 4 7 12 8 15 17 18 17 17 14 7 0 1 1 3 1 1 1 3 5 3 8 2 5 3 3 0 6 4 1 7 1 2 2 4 2 10 5 5 4 3 4 3 2 2 4 1 5 3 1 2 3 4 2 4 4 5
6 6 6 6 4 4 5 6 7 7 7 7 4 2 2 4 2 4 6 7 5 6 6 6 7 7 8 5 4 1 4 3 6 4 6 14 18 19 18 15 13 4 3 2 3 3 5 7 7 5 3 8 4 4 6 5 3 1 5 4 4 5 5 1 3 3 6 9 8 5 2 4 3 2 3 6 4 4 6 6 8 12 10 8 6 4 3 5
6 6 6 6 6 6 6 7 6 5 6 4 4 2 5 6 6 8 8 7 8 8 8 7 7 7 8 6 4 1 4 4 2 2 7 16 18 16 14 14 12 2 2 6 7 6 6 3 1 5 5 1 5 4 3 4 2 4 1 2 6 3 4 4 2 5 4 4 9 6 9 5 2 1 4 9 6 6 8 8 10 6 10 12 10 6 4 5
5 6 6 6 6 6 6 7 7 5 5 2 3 2 7 7 7 7 7 8 8 7 7 7 7 7 7 5 2 3 2 2 2 5 11 16 17 15 13 10 12 3 6 5 3 2 5 5 5 3 3 5 3 5 2 1 1 4 3 2 2 1 6 1 2 2 6 3 6 5 2 6 3 2 3 7 6 3 3 6 7 4 8 7 5 6 5 6
5 5 5 4 5 5 6 6 5 7 6 4 1 5 7 7 6 7 8 9 8 6 7 7 6 6 5 5 4 13 9 1 1 8 12 15 14 11 12 7 9 4 7 7 5 3 3 5 6 1 4 3 1 4 2 1 4 8 4 1 1 1 5 3 1 3 4 9 2 2 4 3 5 4 2 4 4 5 6 2 5 6 6 6 8 6 8 9
5 5 5 4 3 2 3 2 2 3 2 3 4 6 6 5 5 5 5 6 6 7 8 8 6 2 3 2 3 5 6 2 7 6 12 12 12 12 11 4 12 5 12 6 0 5 4 5 8 3 6 3 1 3 1 9 7 4 2 1 1 4 1 2 2 6 6 4 3 5 3 2 3 2 4 6 5 2 1 2 7 7 7 5 6 7 7 7
5 6 6 5 5 5 4 5 5 3 4 6 6 5 4 4 4 5 4 4 6 7 8 6 1 5 6 7 5 6 4 3 4 7 8 10 10 9 11 9 8 9 3 4 6 3 4 1 2 4 3 2 0 7 3 3 2 0 2 2 2 2 2 1 6 4 5 3 2 4 1 1 2 1 3 5 3 2 1 4 6 7 7 7 8 8 8 8
4 5 6 6 5 5 5 5 6 5 5 6 6 4 4 4 5 6 5 5 5 6 7 3 8 5 7 4 4 7 2 4 5 6 7 7 7 10 13 8 7 6 5 6 7 9 2 4 2 5 12 4 2 2 0 4 1 2 5 3 6 3 1 1 3 1 1 1 1 1 1 1 2 2 6 2 5 3 4 5 4 7 9 7 6 7 7 7
4 5 6 6 5 5 5 5 4 5 5 5 6 6 6 6 6 6 6 5 5 6 8 9 2 4 5 3 7 4 2 4 2 4 7 7 9 10 7 8 8 5 4 6 7 1 1 5 6 3 5 1 4 3 4 0 3 6 7 5 6 4 1 1 2 3 1 0 1 4 1 1 3 1 7 6 7 6 8 6 5 5 7 7 7 7 7 7
5 6 7 6 6 5 5 6 6 6 5 4 5 6 5 5 6 5 5 5 4 4 4 2 5 5 5 11 8 2 2 1 3 3 3 10 5 3 2 3 6 5 5 5 6 5 1 5 4 2 2 0 2 0 3 0 5 1 4 3 2 4 0 1 2 3 1 2 4 4 3 1 2 6 3 4 7 7 7 8 7 8 7 7 7 7 6 9
5 6 6 6 4 5 7 7 7 6 5 6 6 6 5 5 4 5 4 5 3 2 1 5 4 5 4 8 1 5 3 2 3 6 11 8 2 3 5 5 5 6 6 7 5 5 1 3 8 13 0 4 1 1 1 7 2 2 8 2 1 4 3 3 2 1 3 1 6 2 8 6 8 12 3 3 9 5 6 7 8 8 7 7 7 7 8 7
4 4 4 4 4 5 6 5 6 5 5 6 6 6 6 5 4 5 5 4 2 2 6 6 5 6 6 1 4 3 3 1 4 12 8 7 7 6 5 6 4 4 2 5 5 5 7 6 16 9 3 5 2 2 3 4 5 3 2 5 1 3 2 2 1 2 2 1 4 1 3 9 6 8 4 6 9 12 12 10 9 9 8 8 8 8 9 9
5 5 5 5 5 5 5 5 5 5 5 6 6 7 7 6 3 4 5 5 8 1 6 4 6 2 6 0 4 8 2 1 9 4 4 7 4 3 5 7 5 5 4 7 3 5 3 3 9 8 2 1 1 2 2 3 5 3 1 3 3 1 5 8 3 1 1 1 2 2 4 10 5 6 4 7 8 9 11 10 10 9 9 9 8 9 9 10
6 6 7 6 5 4 4 7 7 6 5 6 6 6 8 6 5 5 6 4 4 4 0 1 6 8 8 2 0 3 5 4 6 4 1 4 2 1 3 5 3 3 7 5 3 4 8 11 11 1 1 4 10 6 5 3 2 5 2 2 3 1 6 7 1 0 2 1 1 5 7 7 6 3 3 5 9 9 10 10 10 11 11 10 9 8 8 8
5 6 6 4 3 3 6 6 5 4 5 4 6 5 5 7 4 6 8 7 7 2 4 0 1 1 3 3 1 3 2 2 4 3 6 3 2 1 2 2 2 4 4 2 9 6 9 9 2 2 5 6 1 2 1 3 3 1 2 1 2 2 5 4 5 1 3 1 3 1 3 9 8 4 4 5 10 9 10 12 11 11 10 10 8 8 9 9
5 4 4 5 3 2 6 5 4 4 4 5 2 5 3 9 9 7 10 7 3 5 4 3 2 4 1 6 1 2 1 5 6 6 1 1 4 6 5 4 1 2 6 3 6 8 4 4 5 4 2 6 7 6 3 1 1 3 4 4 6 1 3 9 5 1 4 1 2 3 7 16 12 7 6 12 10 11 14 13 12 12 10 10 9 10 10 10
3 4 5 4 1 3 5 4 3 4 5 3 2 1 3 3 4 6 6 6 3 4 1 5 5 1 1 2 5 6 2 4 2 6 6 6 3 2 3 3 5 1 0 4 2 6 6 4 5 8 7 8 5 5 4 1 2 5 4 4 3 5 5 4 6 3 3 5 7 6 9 11 10 6 4 6 9 13 15 8 8 9 9 9 10 10 10 11
4 5 4 2 1 3 3 4 4 4 5 3 2 1 3 2 4 3 8 8 6 1 1 0 1 0 1 4 3 5 3 5 4 5 4 1 2 3 4 3 3 8 5 2 6 3 0 8 5 1 2 2 3 4 1 2 3 1 1 2 6 6 8 5 6 6 2 5 6 6 5 8 14 11 9 9 8 9 10 11 12 10 10 10 11 12 12 12
3 4 4 2 5 1 4 5 3 4 4 5 3 2 1 3 1 1 1 1 1 1 0 1 1 0 1 1 2 4 1 2 2 4 5 0 0 0 3 3 5 6 3 1 0 3 7 8 2 2 2 2 2 3 2 5 2 2 1 1 7 2 9 5 4 1 2 6 7 3 10 14 15 12 9 4 8 14 15 15 13 14 11 11 12 14 14 14
3 4 3 5 6 3 4 5 2 5 6 4 4 2 1 2 0 1 5 2 1 1 1 1 2 0 2 2 1 4 5 1 4 10 4 3 4 1 4 7 4 3 3 2 2 7 8 4 2 3 2 5 5 3 2 2 3 2 1 2 2 7 6 8 2 1 1 6 13 6 11 16 13 13 7 9 13 11 13 14 16 12 12 12 12 13 12 9
3 4 4 6 7 5 4 3 1 3 2 2 3 4 1 1 1 2 4 6 1 1 1 2 1 3 3 4 1 5 3 4 1 6 7 5 3 4 1 4 5 2 3 4 3 1 4 2 3 0 5 3 1 4 4 4 3 1 0 1 5 3 4 7 4 2 2 1 6 8 13 17 7 3 3 6 8 5 3 7 10 7 11 14 15 12 12 13
4 4 5 8 7 6 5 2 1 6 4 5 5 3 2 0 1 2 3 0 1 1 0 1 1 1 1 1 1 4 2 1 1 9 5 3 2 2 4 3 4 3 3 4 4 7 3 1 3 6 3 3 1 3 4 5 5 2 3 2 3 3 4 5 7 6 6 2 3 7 9 11 5 5 5 2 3 6 6 3 7 10 11 10 7 8 12 15
3 4 6 7 8 5 6 5 5 0 2 1 3 1 1 0 1 2 3 1 2 0 1 0 3 0 0 0 3 0 0 0 0 2 2 2 0 2 1 1 3 1 3 0 5 9 1 0 1 2 3 4 2 0 1 1 5 5 6 7 4 4 5 5 5 8 7 3 0 6 8 6 4 5 7 6 2 5 3 7 13 12 9 8 12 16 12 11
3 4 5 5 6 5 1 3 1 1 2 3 2 2 1 1 1 1 7 3 1 1 2 2 0 0 1 1 3 1 1 1 1 1 1 0 2 1 1 2 1 3 3 1 2 2 2 2 2 2 3 3 2 1 1 3 1 1 3 6 3 3 4 4 5 2 3 2 1 2 2 9 3 6 4 3 4 9 4 7 13 10 11 9 13 14 13 13
3 2 1 2 3 4 3 2 1 1 2 0 1 1 1 2 0 1 1 4 1 1 1 1 1 0 2 1 0 1 0 1 2 2 3 3 0 1 2 1 1 3 2 2 2 0 1 1 3 4 3 2 2 2 2 5 1 4 1 1 2 4 4 4 3 5 5 2 3 2 2 2 10 8 2 4 4 8 9 11 13 13 12 13 14 14 13 13
4 3 1 2 3 1 2 4 1 1 1 0 1 2 2 2 1 4 4 1 1 1 1 1 0 2 1 1 6 2 0 2 1 1 1 5 0 3 4 3 2 4 0 1 1 0 2 1 1 1 2 2 0 2 2 4 2 4 2 3 9 5 3 2 4 4 2 3 7 5 0 1 5 9 1 2 5 6 10 12 12 12 13 14 15 15 14 14
7 5 2 4 7 6 4 2 2 1 0 1 1 1 2 3 6 5 3 1 0 1 1 2 2 1 5 1 4 2 1 2 0 2 5 1 6 1 4 0 4 4 2 1 2 1 1 0 2 3 1 2 3 1 4 7 1 4 3 2 1 2 2 3 2 3 1 2 5 1 1 1 9 6 6 1 1 8 10 11 12 12 11 11 12 14 14 12
8 6 2 4 4 0 2 1 4 0 1 2 2 3 3 4 3 2 2 3 1 0 0 1 1 2 2 2 2 7 3 3 1 5 5 1 8 7 2 3 2 3 1 5 3 4 1 3 5 2 2 1 1 2 3 5 6 6 5 4 3 4 3 2 5 2 2 1 6 3 1 2 5 7 7 1 3 5 5 6 7 8 9 10 10 11 11 11
10 8 4 2 1 2 1 2 1 1 2 1 1 4 4 7 3 3 1 2 1 1 1 3 1 6 2 1 0 3 2 2 6 4 1 6 3 6 3 0 4 3 2 4 0 4 2 2 0 1 2 1 1 2 1 1 1 2 3 2 6 1 4 1 3 2 2 6 4 2 0 1 1 9 7 9 5 4 6 9 12 11 10 11 9 10 11 11
8 10 8 6 1 1 1 0 1 1 2 1 2 4 4 3 2 2 3 2 0 2 1 1 1 2 2 1 4 4 1 3 2 4 3 3 2 4 5 2 1 1 1 1 1 3 2 3 1 6 2 3 0 1 3 1 5 5 2 5 7 6 7 3 6 3 2 4 1 2 0 4 9 13 11 9 10 10 8 11 13 11 10 9 9 10 9 8
6 4 9 6 2 3 2 1 2 2 2 2 6 4 2 2 1 3 0 1 0 1 1 1 0 1 0 1 0 2 1 0 2 2 2 0 2 1 1 0 1 0 1 1 2 5 3 1 4 3 2 1 2 0 3 2 2 6 3 2 4 4 4 2 5 2 4 4 1 4 1 4 7 10 12 16 15 11 9 10 11 10 12 11 9 8 7 8
10 7 7 2 5 3 2 2 3 1 1 3 3 3 6 2 3 5 0 2 0 1 3 1 0 1 2 1 0 1 1 1 1 1 1 0 3 0 1 1 1 1 2 1 0 0 3 4 3 4 1 1 1 2 2 2 1 0 2 1 2 4 0 4 2 3 5 7 4 1 2 7 3 6 4 9 8 5 5 6 6 8 10 9 6 6 7 8
7 7 2 1 2 3 4 3 4 2 3 4 7 4 3 6 2 2 2 1 1 1 1 1 1 1 1 0 1 1 1 1 1 0 3 0 2 1 2 1 1 2 1 1 1 1 1 6 3 2 1 1 3 1 2 3 2 0 2 3 4 2 5 4 3 2 4 6 9 2 6 4 6 7 13 5 6 9 6 8 4 11 9 6 8 11 11 10
5 3 2 3 3 2 2 3 3 2 4 6 2 0 4 4 1 2 0 1 1 1 1 1 2 1 1 2 1 2 2 0 2 1 1 0 1 2 0 1 2 2 3 1 3 1 2 3 2 4 3 1 0 1 1 1 1 1 2 1 2 2 5 1 2 1 1 3 9 2 9 7 7 11 7 6 4 8 3 6 5 11 9 4 10 12 12 11
2 4 3 3 2 0 1 3 2 4 7 4 4 3 4 1 2 2 2 0 0 3 1 2 3 3 1 2 1 0 2 1 2 1 3 0 3 4 1 2 4 1 2 3 2 2 1 8 1 2 1 1 2 1 2 3 2 5 0 3 1 2 4 3 3 3 2 2 7 2 4 13 8 9 4 7 6 11 8 8 8 8 7 8 13 13 13 13
1 2 0 1 1 1 3 1 3 5 4 3 3 6 1 0 0 0 0 1 0 2 2 2 1 2 3 1 2 1 0 1 3 1 2 2 1 3 4 2 1 2 0 1 1 1 3 5 2 1 0 3 2 0 2 1 1 2 2 2 1 2 3 2 2 4 4 5 7 4 4 9 6 11 5 7 4 9 7 7 5 10 9 12 13 15 14 12
3 2 1 1 1 1 2 2 4 3 1 1 2 1 1 1 0 0 2 2 0 1 1 2 0 1 1 1 1 0 1 2 0 1 1 1 0 2 3 4 1 2 2 3 1 0 1 1 5 0 1 2 1 2 4 1 2 2 1 0 0 2 3 2 2 2 6 7 6 7 4 9 5 8 7 10 10 9 9 7 10 11 11 10 10 11 12 11
1 1 1 0 3 3 2 1 2 5 3 3 3 3 0 1 0 1 1 0 0 1 2 1 0 0 1 3 2 0 1 1 2 2 1 2 1 1 2 2 4 1 3 1 1 0 1 2 3 2 3 1 2 5 7 9 5 0 1 2 1 0 2 3 1 3 4 3 3 3 9 7 13 7 6 12 13 12 7 11 10 10 10 11 11 12 11 11
1 2 1 2 3 0 2 8 5 1 1 0 1 1 0 0 0 0 2 2 0 1 1 2 3 2 2 1 3 2 1 2 1 2 3 2 4 2 1 1 3 3 1 2 0 0 2 1 5 4 5 4 8 0 3 5 6 8 9 7 8 5 1 1 9 2 1 3 5 1 13 8 21 2 8 10 12 9 8 8 11 11 12 12 12 11 11 11
1 1 1 1 3 1 3 2 2 0 2 2 1 1 0 2 1 0 1 0 1 0 2 2 0 1 2 2 1 2 2 1 2 0 3 4 0 0 1 5 3 3 3 2 2 2 1 2 1 6 7 8 3 1 1 1 2 3 6 3 4 3 5 3 2 4 1 4 3 2 1 16 14 2 6 7 6 8 8 6 10 12 13 13 13 12 11 11
1 1 2 2 3 4 6 2 1 2 1 1 2 1 0 0 2 1 1 0 0 1 1 0 3 2 3 0 1 1 3 2 6 4 2 1 2 0 3 3 2 5 4 1 1 2 4 1 2 7 7 4 1 1 0 1 1 1 0 4 4 4 7 9 6 5 4 1 1 2 3 15 17 2 5 5 4 6 7 7 12 12 13 14 14 13 12 11
1 0 0 1 2 3 3 4 0 1 1 2 1 0 1 1 1 0 0 1 1 0 1 1 2 1 0 0 1 1 3 1 2 1 2 1 1 2 5 5 4 2 1 3 3 2 1 3 3 5 6 5 2 1 1 2 1 2 2 3 2 3 6 2 5 0 2 9 9 5 13 12 8 5 1 2 4 8 12 13 9 13 13 12 13 12 11 11
2 0 0 5 7 3 3 3 2 2 0 1 0 0 1 1 1 1 1 1 0 1 1 1 0 0 1 0 1 0 0 1 2 0 1 1 1 1 5 4 3 0 1 2 3 2 1 3 2 3 5 10 12 12 6 1 3 3 0 1 3 9 8 2 4 1 5 4 8 4 11 17 15 14 17 16 15 17 16 14 10 9 12 14 13 13 12 11
1 1 3 2 6 6 4 1 3 5 3 1 0 1 1 0 0 2 3 0 1 0 0 0 0 1 1 1 0 1 2 1 1 2 0 1 2 2 1 2 2 0 1 3 5 1 1 0 2 5 7 9 11 5 2 2 1 3 5 6 8 3 3 2 5 4 12 4 8 15 15 21 21 25 23 20 16 18 21 20 18 16 13 11 11 12 12 12
0 1 0 1 3 5 2 3 2 1 1 4 1 2 2 1 1 1 3 0 0 2 0 1 1 1 2 1 3 1 1 0 0 0 4 5 1 2 0 1 2 1 2 1 2 2 2 2 6 7 9 13 13 12 2 4 8 14 9 8 7 7 10 10 10 13 6 5 12 13 16 13 21 23 20 19 19 18 18 18 18 17 15 15 16 15 15 14
0 1 2 0 2 1 0 2 2 3 1 0 0 1 2 1 0 1 0 0 0 0 1 1 1 3 3 3 3 0 0 1 0 3 1 1 0 2 0 0 1 4 3 0 1 1 2 2 6 6 10 9 15 14 9 8 8 12 11 7 7 9 8 15 19 15 7 8 16 20 4 5 19 21 21 20 21 20 20 23 20 18 17 16 17 18 18 17
2 1 1 1 0 1 1 0 2 4 4 1 1 1 1 2 4 4 2 0 0 0 2 2 3 7 6 2 2 2 2 1 3 2 4 1 3 0 1 1 0 5 1 1 1 1 2 5 3 2 6 9 17 13 9 9 8 6 8 13 11 11 16 18 21 11 11 14 20 20 21 22 22 25 25 24 21 18 19 18 18 19 19 18 17 18 18 17
1 1 1 4 5 3 0 1 1 3 2 0 0 2 3 5 2 0 1 2 0 1 0 2 6 2 3 4 3 2 6 4 1 2 1 6 0 2 2 4 1 2 0 2 1 1 2 6 3 1 2 9 11 5 3 3 2 8 14 15 11 13 13 16 12 10 7 13 20 25 21 22 22 23 21 21 18 14 14 18 22 21 17 16 16 17 18 18
0 1 4 5 1 0 1 1 1 1 0 1 0 1 1 2 3 4 1 1 1 3 4 4 1 2 1 3 3 8 3 1 2 2 4 5 3 5 3 2 6 4 1 1 1 1 1 5 2 2 3 8 2 3 7 8 5 8 18 21 10 5 6 8 8 8 6 14 13 7 9 15 18 13 9 9 9 12 16 19 22 22 20 18 19 22 22 21
2 0 1 2 1 1 1 1 1 1 1 3 2 1 1 2 3 3 1 1 1 1 2 3 2 0 0 1 8 7 2 3 3 3 4 4 1 1 1 2 7 7 5 4 0 3 4 1 1 2 4 8 4 3 10 10 7 6 5 2 1 4 5 4 4 5 13 5 5 9 13 13 14 14 18 20 17 16 17 18 21 24 25 23 21 21 21 21
Wind_Direction
27 30 31 30 25 25 24 19 24 52 62 50 28 31 54 24 19 53 54 41 36 37 15 7 7 8 3 0 4 6 49 72 38 35 45 191 257 287 298 309 329 336 20 53 15 36 350 12 6 342 35 54 315 39 314 54 43 54 62 115 60 176 113 195 176 186 154 132 201 211 207 122 152 237 207 37 34 54 38 46 331 24 38 12 7 73 110 125
25 26 25 27 19 16 16 8 10 33 56 56 43 3 55 45 21 54 55 47 30 11 356 354 344 350 351 342 8 7 74 59 42 41 40 318 327 334 340 342 343 349 60 30 74 90 54 351 344 29 44 42 331 354 10 359 58 78 118 81 159 196 179 140 195 185 120 187 173 193 161 164 198 151 202 88 275 4 51 346 14 27 20 51 55 83 113 129
24 22 26 31 21 17 18 3 11 41 52 46 29 3 13 61 23 66 53 39 23 353 341 340 344 342 353 346 349 358 61 11 26 24 327 339 336 339 341 343 341 352 124 128 217 125 102 169 356 68 20 87 4 337 36 339 61 221 113 87 227 204 156 193 158 189 163 136 134 150 204 146 169 131 159 142 177 357 161 167 318 238 180 164 143 124 133 136
25 19 15 25 21 27 27 21 17 23 50 41 349 359 22 48 14 50 50 42 28 14 353 352 349 6 8 344 27 48 70 61 38 301 302 330 339 337 339 338 342 7 108 63 138 99 93 76 62 85 52 60 310 35 45 322 70 291 71 156 181 182 114 281 160 141 143 135 151 151 144 120 198 186 136 144 92 279 262 227 171 199 186 179 180 168 156 146
22 16 11 10 7 18 22 25 23 23 38 38 336 333 45 37 19 29 28 23 17 2 357 346 356 3 5 16 33 74 70 56 296 280 289 339 338 334 333 334 337 30 130 137 77 53 73 95 80 39 71 17 6 11 28 340 89 82 74 221 133 139 84 214 195 127 126 110 120 140 137 192 118 59 136 160 158 219 215 220 225 203 168 165 172 185 176 167
19 26 9 6 6 16 24 20 359 11 31 26 322 6 56 41 29 11 7 11 11 357 342 350 353 352 4 25 48 61 76 90 310 315 329 336 334 333 328 328 341 51 102 64 86 82 92 11 60 24 18 61 330 89 305 27 6 86 356 78 105 197 136 219 216 197 141 99 121 168 204 101 150 178 198 191 201 235 261 272 204 187 171 158 142 152 176 180
8 18 9 358 5 10 18 17 360 25 353 305 129 57 56 43 15 357 352 6 353 343 346 342 342 349 356 40 38 75 84 202 346 289 345 336 328 334 329 329 19 68 69 61 23 74 71 78 74 86 88 61 331 79 326 354 23 97 177 163 213 194 135 155 148 91 74 127 183 184 120 114 148 162 183 218 255 274 297 272 140 133 131 143 153 184 185 189
11 6 0 350 14 18 67 59 29 43 330 323 48 52 48 32 5 336 340 345 340 348 346 337 315 298 325 43 44 30 44 330 301 304 342 334 337 346 325 24 17 23 57 61 306 103 101 79 121 156 60 126 202 102 321 65 18 84 79 214 82 76 30 50 109 80 87 69 104 90 139 216 166 170 112 244 247 291 313 101 116 129 139 154 167 187 197 205
16 8 346 355 7 4 31 38 28 31 18 1 2 32 30 17 340 316 331 342 355 350 342 329 303 81 98 84 103 64 348 248 247 314 344 345 335 343 19 21 352 46 98 44 28 122 96 220 123 178 203 116 4 108 347 88 354 125 156 117 114 88 84 94 69 58 92 100 101 74 346 327 239 241 217 223 224 229 180 108 128 139 152 177 193 195 197 203
11 10 344 352 9 6 8 25 18 4 27 4 350 2 8 357 335 329 332 353 349 345 355 53 107 101 56 78 41 70 267 270 317 340 341 346 0 9 26 21 22 30 46 355 33 33 73 200 131 135 118 73 87 54 1 70 177 125 74 62 106 129 102 297 106 156 132 164 213 115 231 256 264 38 271 189 209 170 137 139 158 159 180 195 200 211 217 205
3 9 352 344 5 6 20 13 10 20 22 6 356 356 357 351 337 333 340 351 354 358 7 41 133 85 52 73 91 97 232 36 351 347 352 4 33 29 10 9 6 41 80 32 51 21 0 111 120 127 42 180 94 2 63 250 130 81 127 80 42 347 11 61 78 182 267 241 121 117 148 274 281 14 234 192 182 168 156 174 181 196 199 204 213 214 221 224
10 11 351 346 5 3 20 8 17 22 23 12 9 356 345 337 343 331 350 356 31 5 334 283 51 95 79 72 72 93 277 218 331 329 21 23 13 67 137 32 51 56 62 52 3 10 351 147 87 64 158 171 54 69 51 29 70 93 83 103 322 4 12 0 185 213 160 256 140 163 93 257 222 233 248 203 154 165 170 180 199 205 216 218 218 224 225 225
17 15 347 347 6 9 23 8 23 16 6 23 8 352 329 332 319 324 351 30 68 346 337 79 63 76 87 45 263 242 326 285 1 1 15 6 353 112 70 40 73 69 70 79 27 341 49 138 99 72 345 93 146 41 167 67 14 102 41 104 40 1 326 246 299 163 172 268 162 191 314 271 239 238 267 172 155 152 176 204 205 212 216 221 221 223 232 239
27 16 350 323 10 31 34 29 27 17 16 24 359 333 316 310 310 312 2 339 347 66 109 81 78 62 82 175 272 267 287 290 359 30 354 331 43 326 29 16 40 47 44 96 72 23 57 66 85 117 109 77 106 336 43 356 20 125 288 68 74 22 260 258 306 323 124 215 177 330 269 274 276 277 225 176 166 170 196 207 212 215 219 220 224 223 229 236
18 10 357 3 8 42 58 48 31 13 34 38 35 15 12 1 333 351 357 18 11 120 142 73 52 75 52 195 274 297 295 51 35 350 332 20 25 347 348 349 16 14 63 59 74 19 48 86 65 41 16 327 29 52 12 34 10 22 54 296 323 132 278 307 18 38 75 357 184 83 255 255 263 266 194 177 180 185 206 211 215 218 220 222 222 227 233 238
8 6 9 5 4 40 58 54 27 7 40 32 351 332 2 11 45 63 59 74 7 108 126 50 358 99 102 44 244 19 41 41 342 312 305 57 62 7 288 275 288 9 42 29 43 47 32 62 70 131 343 4 46 77 54 27 347 359 53 266 292 344 267 342 34 286 66 180 134 174 251 310 292 277 193 187 182 199 213 221 222 223 226 226 224 228 234 247
359 13 353 3 352 58 70 43 12 344 2 354 340 319 344 19 93 87 69 46 11 356 76 110 132 72 80 247 313 35 310 288 281 350 346 28 71 330 342 37 14 338 1 0 30 50 7 58 291 26 41 90 95 77 39 11 320 314 28 32 231 277 319 308 302 81 9 83 284 322 233 246 252 270 214 199 198 199 220 227 226 226 227 226 230 232 236 238
344 357 353 7 1 67 46 19 327 5 337 334 332 315 323 23 61 41 357 13 350 73 80 93 107 46 27 18 61 315 345 290 359 309 315 320 60 21 63 44 330 23 33 12 1 43 341 48 16 127 36 22 30 38 109 270 214 272 331 338 322 304 245 267 314 267 20 28 243 271 252 269 262 269 221 206 199 203 220 221 223 226 227 230 231 234 236 239
323 12 356 3 323 50 17 337 321 345 340 313 25 111 353 14 25 70 51 342 33 343 27 333 20 108 197 307 290 296 300 263 262 28 332 357 338 62 52 85 63 55 316 60 322 47 345 61 33 40 16 353 0 85 116 223 162 227 221 222 244 292 287 255 248 283 46 313 289 250 251 278 285 273 242 224 204 207 227 233 244 240 236 236 234 236 237 238
356 4 336 337 234 34 330 301 323 345 355 63 17 16 13 17 6 339 344 32 72 135 201 231 150 288 359 357 353 286 237 25 69 338 322 304 347 348 39 53 6 60 67 59 314 32 77 75 72 130 241 237 250 191 185 229 187 162 141 179 243 258 277 267 276 270 340 304 246 251 257 268 278 272 256 214 198 226 237 237 236 235 232 232 235 236 237 238
337 326 316 259 225 334 302 290 323 347 63 94 79 64 265 166 73 327 330 358 211 177 29 274 166 157 126 244 296 4 43 319 91 336 349 160 67 95 328 27 16 45 10 259 166 305 70 73 355 232 228 223 212 192 122 73 93 165 159 225 285 218 282 281 288 342 322 47 279 263 282 268 266 273 260 184 178 221 219 229 236 237 230 234 234 239 237 240
309 289 298 244 229 254 276 290 346 69 73 86 72 134 108 187 185 191 118 31 329 322 6 299 12 350 328 210 281 136 75 48 347 354 322 38 326 102 323 80 78 99 338 342 18 23 40 95 231 252 163 98 82 86 62 122 119 54 206 222 338 288 256 290 292 273 264 16 285 325 304 286 273 262 243 178 196 224 216 213 225 223 233 234 235 239 245 249
299 297 274 249 236 267 277 303 47 84 35 46 88 98 101 212 225 216 94 122 61 308 30 12 5 3 350 322 18 61 59 48 287 329 339 13 6 60 130 59 38 30 10 25 155 84 41 295 246 244 138 139 66 43 57 52 72 115 55 0 291 271 27 314 276 13 315 196 278 315 306 292 298 303 269 223 208 247 245 234 246 227 234 233 233 230 234 239
303 286 262 241 240 271 289 72 53 39 28 118 97 98 162 143 181 117 61 85 170 288 28 223 137 150 27 42 314 73 91 292 81 322 346 64 82 194 76 123 76 51 3 356 106 116 157 164 144 76 75 158 157 9 56 40 335 292 193 195 255 292 232 196 286 324 295 318 209 280 282 297 350 346 330 324 234 269 263 276 260 248 238 247 269 257 233 237
318 297 264 246 244 270 285 48 35 225 194 76 59 152 121 201 123 124 94 354 15 332 99 29 103 325 236 319 8 77 238 63 220 240 283 63 7 38 103 143 96 59 183 345 66 76 37 199 119 44 38 54 113 22 86 107 337 309 226 197 245 244 276 274 300 339 354 332 282 13 351 305 292 283 260 287 349 262 246 241 254 247 244 239 245 245 244 241
336 299 278 256 256 276 344 52 289 191 79 70 143 133 137 145 96 90 92 74 254 259 350 245 172 305 161 342 12 104 85 5 252 257 4 294 201 132 98 24 74 181 214 171 134 153 158 5 110 157 101 65 60 152 220 126 217 31 283 191 225 257 266 277 300 26 326 316 287 64 125 275 316 289 273 337 315 275 280 248 258 255 248 236 238 244 241 237
2 320 311 288 323 344 45 224 206 170 60 271 72 87 36 79 235 72 48 346 33 235 153 243 81 275 96 299 100 71 80 275 331 10 19 340 25 335 98 296 27 34 141 161 43 319 121 349 54 48 67 73 65 12 222 139 80 294 215 91 280 295 271 249 220 185 230 273 300 40 115 217 313 288 327 306 294 283 289 264 253 252 246 239 239 241 241 239
21 19 42 79 9 101 209 126 126 90 153 100 100 96 72 145 98 48 78 63 261 13 90 303 158 358 91 327 48 115 216 296 22 259 84 304 145 350 86 192 153 164 17 71 307 263 125 252 169 322 68 74 79 218 197 173 196 236 267 356 309 293 255 180 145 177 233 33 303 338 303 351 255 260 79 6 325 303 279 272 266 253 247 242 240 240 239 238
22 21 65 103 88 78 80 126 129 125 100 139 121 76 109 75 83 102 131 151 235 83 243 70 299 58 337 321 31 27 330 11 134 304 323 302 49 183 62 225 126 120 35 81 191 265 321 131 235 140 136 258 236 246 171 158 261 277 275 268 106 93 74 132 116 134 330 59 285 236 218 173 280 274 334 340 222 271 260 262 258 254 249 243 241 244 242 243
25 12 83 140 77 42 350 37 60 153 83 66 67 115 51 55 35 38 4 259 55 271 54 252 41 262 23 57 323 5 50 330 118 307 26 84 329 35 48 138 110 85 68 10 82 191 277 280 166 106 203 211 236 251 177 200 240 314 357 332 347 34 40 16 81 86 57 13 254 233 260 139 300 277 241 142 234 212 256 275 269 268 264 255 244 241 243 237
29 19 355 56 152 207 115 13 317 16 88 75 104 51 71 38 116 104 195 229 48 282 358 28 287 20 43 86 195 344 63 335 340 12 320 10 347 33 27 108 39 50 50 4 111 337 356 355 237 256 42 75 73 334 96 196 304 6 3 341 344 12 10 46 341 40 64 283 257 246 225 69 195 291 271 235 263 226 219 259 271 270 259 254 244 239 238 237
33 40 37 70 204 7 86 230 185 101 68 111 63 60 67 248 1 177 221 338 51 285 104 269 35 99 52 357 83 341 352 340 3 41 51 21 33 29 344 143 79 48 342 6 292 354 269 216 269 317 235 164 355 19 299 348 2 40 33 14 43 295 22 334 17 350 203 214 175 143 24 359 229 231 261 277 256 256 225 231 248 257 266 256 251 242 238 236
39 63 61 43 1 52 47 146 98 125 79 44 72 52 65 94 241 269 289 317 234 34 261 77 239 32 218 57 6 316 270 100 321 67 126 354 99 0 211 179 200 179 288 258 276 13 283 290 330 275 54 215 129 63 309 14 338 22 57 107 65 15 21 265 274 229 301 288 240 183 293 239 268 279 241 245 259 246 239 231 237 247 252 255 247 247 246 242
54 43 63 331 75 82 127 98 75 90 54 42 70 56 49 79 248 205 270 233 331 347 38 61 15 65 37 186 247 16 343 227 47 307 44 294 48 327 317 321 153 27 73 105 125 152 12 344 267 156 241 115 118 170 184 188 108 225 162 136 167 136 151 294 255 291 269 256 291 291 45 234 29 258 212 215 242 265 251 253 251 255 255 259 270 273 264 254
86 63 99 344 50 44 65 78 78 84 80 63 54 91 147 240 224 191 244 284 267 342 90 308 61 56 341 19 299 284 176 303 90 1 9 51 250 151 196 238 343 112 188 100 269 67 209 230 261 17 128 92 164 194 120 93 59 90 160 95 70 232 127 192 208 197 307 346 328 242 205 204 209 285 285 281 283 278 259 261 258 268 258 254 269 258 251 245
32 318 50 27 41 332 74 79 88 69 86 58 81 98 196 199 348 160 264 165 80 132 202 37 82 49 287 301 319 91 292 153 306 76 284 224 206 164 213 214 186 159 159 168 199 166 28 282 330 333 55 83 198 154 313 103 341 239 90 225 207 142 109 30 5 86 51 50 253 185 306 270 283 287 281 338 343 287 299 274 264 258 264 253 255 255 251 246
33 333 37 337 7 338 126 83 83 77 65 93 93 256 210 285 201 169 283 145 200 141 85 129 281 146 250 264 243 336 263 30 271 92 280 204 305 188 209 270 159 95 202 133 304 181 158 266 293 78 235 25 290 156 99 20 133 72 347 233 150 136 123 126 256 329 60 167 269 71 249 301 29 301 321 333 310 279 289 278 264 272 270 259 254 252 250 244
60 47 105 11 265 73 77 113 74 49 83 91 205 237 171 187 310 173 179 86 60 35 100 147 267 96 269 130 303 172 312 142 286 53 240 186 262 152 121 164 178 127 134 314 127 279 106 321 306 335 271 300 359 17 351 32 29 168 197 198 74 293 319 326 93 333 343 293 283 300 280 260 206 259 321 286 265 274 279 277 288 275 263 250 255 258 257 255
61 79 27 280 17 59 89 79 70 75 61 70 242 335 234 248 253 129 245 159 190 118 144 252 162 318 130 205 232 286 210 193 261 185 36 233 112 197 174 165 146 125 88 122 78 215 23 177 296 343 88 318 343 78 261 250 26 42 63 48 338 111 199 116 205 192 118 274 12 291 60 278 215 228 207 268 275 284 282 294 270 257 256 258 255 256 256 254
34 34 320 302 8 62 97 78 58 45 75 184 231 217 197 258 231 282 319 179 257 114 227 140 239 75 212 216 149 196 294 177 167 243 148 272 233 210 186 6 158 147 87 4 136 102 160 125 259 287 305 336 265 185 213 160 148 193 64 301 335 345 216 116 338 154 194 202 205 272 319 271 271 187 223 256 269 275 261 263 267 266 264 258 257 257 256 249
37 99 265 286 352 244 49 45 49 60 157 320 99 180 13 249 191 307 348 26 112 326 166 183 161 186 202 114 287 180 237 185 201 194 200 290 175 306 14 142 152 132 134 56 62 281 87 180 210 305 336 214 239 212 200 173 166 171 165 205 176 118 141 332 274 56 65 116 240 168 269 278 272 121 223 245 261 261 259 241 261 272 271 269 267 259 248 252
104 298 271 328 338 65 76 48 13 236 97 152 235 171 178 123 77 311 6 323 80 173 4 106 340 134 134 186 166 196 147 235 216 13 248 186 283 147 336 37 90 151 119 175 199 244 146 167 94 273 224 241 229 194 287 195 133 166 164 233 161 133 104 111 254 273 7 243 114 161 20 268 257 151 208 232 242 250 252 240 257 270 275 275 270 264 257 245
65 187 251 25 342 85 67 58 276 37 72 252 305 336 332 16 129 247 138 302 325 94 24 88 192 153 258 179 185 187 174 251 165 214 211 232 259 206 305 43 101 71 83 328 43 261 100 88 353 268 293 308 351 241 350 71 103 64 324 98 121 184 183 184 186 175 167 249 262 313 224 260 278 173 218 228 248 271 270 247 258 269 275 275 273 272 262 258
148 193 54 29 69 102 94 224 244 270 279 301 92 225 241 180 140 42 265 292 155 247 197 217 335 204 188 94 122 211 189 233 245 142 301 168 285 88 5 33 346 174 122 228 138 239 80 283 131 310 337 318 348 10 356 348 75 213 211 224 174 72 70 136 104 75 282 209 183 146 253 273 272 78 241 262 282 284 277 273 240 261 270 269 273 274 266 258
104 313 310 302 5 70 218 192 144 149 242 157 45 209 233 9 204 201 163 217 120 187 109 287 199 145 62 98 87 78 323 165 300 332 96 228 233 3 331 71 350 109 61 242 207 319 161 226 117 291 298 317 318 326 309 282 248 237 199 173 214 160 136 137 246 143 208 270 159 196 257 254 278 298 298 304 309 301 296 289 283 235 257 277 283 280 275 266
174 180 302 336 12 42 69 64 100 135 131 158 6 273 111 28 9 318 151 294 168 123 133 141 345 101 90 79 312 260 239 322 173 281 17 289 285 1 271 341 50 271 283 80 34 38 184 344 201 186 173 228 241 244 138 80 346 265 243 175 221 212 210 134 98 126 221 201 183 238 238 281 297 291 294 298 301 298 300 304 303 302 293 278 270 272 274 273
155 92 293 260 341 52 93 17 80 79 216 180 257 163 313 194 258 337 169 352 258 153 45 160 180 134 253 102 240 272 226 285 34 244 236 197 270 256 303 127 354 164 265 90 3 85 66 299 240 213 238 245 259 275 282 18 285 279 273 248 208 189 181 177 181 232 120 85 272 246 252 265 269 278 284 290 293 295 293 295 298 299 299 297 294 292 287 279
236 252 107 211 141 285 45 347 100 79 40 116 143 113 189 142 63 207 334 246 62 275 139 318 116 230 174 182 145 191 271 234 129 237 12 241 1 334 9 353 166 324 5 19 4 128 149 209 282 146 259 259 271 276 287 280 245 260 271 257 224 205 178 199 229 229 122 210 252 274 265 243 277 278 283 288 289 291 298 297 298 298 296 296 295 293 288 283
99 147 146 310 218 250 144 166 102 121 88 109 128 116 168 178 228 217 163 48 32 304 178 256 262 227 207 193 154 224 182 358 297 232 187 167 206 89 319 324 152 18 65 38 13 176 102 247 247 143 271 286 280 280 275 253 274 280 262 259 234 194 214 215 238 230 200 239 256 270 278 275 275 282 282 283 289 295 294 297 298 298 298 298 293 290 290 289
228 154 242 3 84 110 16 59 97 89 106 312 123 252 162 183 210 289 320 146 220 275 32 206 253 273 196 176 165 177 219 191 192 294 233 120 317 165 232 194 147 351 1 172 114 282 137 277 100 208 338 276 274 299 304 260 247 289 282 261 233 221 228 232 243 257 236 269 263 264 278 282 273 268 277 282 287 291 298 296 296 297 301 299 298 297 296 294
222 141 148 124 73 344 41 23 104 127 80 304 141 260 105 201 231 195 180 182 171 179 178 209 170 96 81 171 207 245 233 195 195 224 195 172 254 217 157 289 130 145 141 137 92 320 104 265 56 63 351 290 313 17 308 303 286 264 278 290 288 178 226 244 217 218 181 235 255 298 287 270 274 278 261 266 282 293 296 302 306 309 310 309 307 305 302 300
84 107 82 101 86 288 202 0 15 86 283 229 165 203 176 248 211 165 228 84 63 60 194 189 197 109 6 133 238 234 256 202 217 224 218 221 165 129 222 173 153 148 173 163 246 148 184 144 0 24 336 262 267 344 310 314 316 313 306 262 191 196 226 270 258 187 214 198 277 265 262 266 284 305 310 304 306 307 309 309 308 307 309 312 307 301 298 297